Location: ??????
(56.0120°N, 39.1740°E)
Time: 07:48:10
(UTC+00:00)

Cosmos 1452 Rocket - Pass Details

Date: 14 April 2026
Orbit: 764 x 769 km, 74.1° (Epoch: 13 May)

Event Time Altitude Azimuth Distance (km) Brightness Sun altitude
Exits shadow 22:37:08 34° 140° (SE) 1,245 4.3 -22.5°
Maximum altitude 22:38:26 40° 106° (ESE) 1,121 4.3 -22.5°
Drops below altitude 10° 22:43:18 10° 38° (NE) 2,313 7.0 -22.2°
Sets 22:45:47 0° 32° (NNE) 3,243 8.2 -22.1°
